This demonstration page uses our WeatherBlox Daily Observations layout. Learn more.

Hourly Observations for September 25, 2019

Temp ( °F °C ) Dew Point ( °F °C ) Humidity (%) Winds ( mph kmh ) Pressure ( in mb ) Visibility ( mi km ) Precip ( " mm )
12:15 am 00:15 Clear 60 15.6 54 12.2 80 80 ENE 7 11 29.76 1008 10 16.0934 0 0
12:35 am 00:35 Clear 61 15.9 54 12 78 78 E 7 11 29.77 1008 10 16.0934 0 0
12:55 am 00:55 Clear 60 15.4 53 11.9 80 80 E 5 7 29.77 1008 10 16.0934 0 0
1:15 am 01:15 Clear 59 15.2 53 11.8 80 80 E 5 7 29.77 1008 10 16.0934 0 0
1:35 am 01:35 Clear 59 14.9 53 11.7 81 81 ESE 5 7 29.78 1008 10 16.0934 0 0
1:55 am 01:55 Clear 58 14.6 53 11.7 83 83 ESE 5 7 29.77 1008 10 16.0934 0 0
2:15 am 02:15 Clear 58 14.7 53 11.7 82 82 Calm 29.78 1009 10 16.0934 0 0
2:35 am 02:35 Clear 58 14.3 53 11.7 85 85 E 5 7 29.79 1009 10 16.0934 0 0
2:55 am 02:55 Clear 58 14.5 53 11.9 85 85 E 6 9 29.8 1009 10 16.0934 0 0
3:15 am 03:15 Clear 57 14 53 11.9 87 87 Calm 29.81 1009 10 16.0934 0 0
3:35 am 03:35 Clear 55 12.6 53 11.6 94 94 Calm 29.83 1010 10 16.0934 0 0
3:55 am 03:55 Clear 55 12.8 53 11.7 93 93 N 3 6 29.85 1011 10 16.0934 0 0
4:15 am 04:15 Clear 56 13.1 53 11.9 93 93 N 3 6 29.86 1011 10 16.0934 0 0
4:35 am 04:35 Clear 56 13.3 54 12 92 92 N 7 11 29.85 1011 10 16.0934 0 0
4:55 am 04:55 Clear 55 12.8 53 11.5 92 92 N 3 6 29.86 1011 10 16.0934 0 0
5:15 am 05:15 Clear 53 11.8 52 10.9 94 94 Calm 29.87 1011 10 16.0934 0 0
5:35 am 05:35 Clear 54 12.1 53 11.5 96 96 N 5 7 29.87 1012 10 16.0934 0 0
5:55 am 05:55 Clear 53 11.8 52 11.1 96 96 Calm 29.87 1011 10 16.0934 0 0
6:15 am 06:15 Clear 53 11.5 52 10.9 96 96 N 7 11 29.91 1013 10 16.0934 0 0
6:35 am 06:35 Clear 54 12 52 11.3 96 96 NNE 6 9 29.91 1013 10 16.0934 0 0
6:55 am 06:55 Clear 53 11.9 52 11.2 96 96 N 5 7 29.91 1013 10 16.0934 0 0
7:15 am 07:15 Clear 53 11.5 52 11 97 97 N 3 6 29.91 1013 10 16.0934 0 0
7:35 am 07:35 Sunny 54 12.2 53 11.5 96 96 N 6 9 29.92 1013 10 16.0934 0 0
7:55 am 07:55 Sunny 53 11.5 52 11.1 97 97 N 6 9 29.93 1014 10 16.0934 0 0
8:15 am 08:15 Sunny 55 12.5 53 11.5 94 94 N 6 9 29.93 1014 7 11.26538 0 0
8:35 am 08:35 Sunny 56 13.5 54 12.1 91 91 N 3 6 29.93 1014 10 16.0934 0 0
8:55 am 08:55 Sunny 58 14.3 55 12.8 91 91 Calm 29.93 1013 10 16.0934 0 0
9:15 am 09:15 Sunny 61 15.9 55 12.8 82 82 NNE 3 6 29.92 1013 10 16.0934 0 0
9:35 am 09:35 Sunny 63 17.2 55 12.8 76 76 NNE 5 7 29.91 1013 10 16.0934 0 0
9:55 am 09:55 Sunny 65 18.6 53 11.4 63 63 NE 6 9 29.91 1013 10 16.0934 0 0
10:15 am 10:15 Sunny 68 19.9 52 10.9 56 56 NE 9 15 29.9 1012 10 16.0934 0 0
10:35 am 10:35 Sunny 69 20.8 47 8.5 45 45 NE 12 19 29.89 1012 10 16.0934 0 0
10:55 am 10:55 Sunny 71 21.5 46 7.8 41 41 NE 10 17 29.88 1012 10 16.0934 0 0
11:15 am 11:15 Sunny 72 22.2 44 6.6 37 37 NE 14 22 29.89 1012 10 16.0934 0 0
11:35 am 11:35 Sunny 73 22.9 44 6.5 35 35 NE 14 22 29.88 1012 10 16.0934 0 0
11:55 am 11:55 Sunny 73 23 44 6.6 35 35 NE 12 19 29.89 1012 10 16.0934 0 0
12:15 pm 12:15 Sunny 74 23.2 43 6.2 33 33 NE 13 20 29.89 1012 10 16.0934 0 0
12:35 pm 12:35 Sunny 74 23.4 43 6 33 33 ENE 13 20 29.88 1012 10 16.0934 0 0
12:55 pm 12:55 Sunny 75 24 44 6.4 32 32 E 12 19 29.86 1011 10 16.0934 0 0
1:15 pm 13:15 Sunny 74 23.6 43 6 32 32 E 10 17 29.86 1011 10 16.0934 0 0
1:35 pm 13:35 Sunny 76 24.2 44 6.7 33 33 ENE 10 17 29.85 1011 10 16.0934 0 0
1:55 pm 13:55 Sunny 76 24.3 45 7 33 33 ENE 6 9 29.85 1011 10 16.0934 0 0
2:15 pm 14:15 Sunny 77 24.8 45 7.3 33 33 NE 10 17 29.84 1010 10 16.0934 0 0
2:35 pm 14:35 Sunny 76 24.5 44 6.6 32 32 NE 8 13 29.84 1011 10 16.0934 0 0
2:55 pm 14:55 Sunny 76 24.5 44 6.9 32 32 NE 7 11 29.84 1011 10 16.0934 0 0
3:15 pm 15:15 Sunny 76 24.7 44 6.9 32 32 ENE 6 9 29.84 1010 10 16.0934 0 0
3:35 pm 15:35 Sunny 77 24.9 45 7.4 33 33 NE 10 17 29.85 1011 10 16.0934 0 0
3:55 pm 15:55 Sunny 76 24.6 45 7.3 33 33 NNE 12 19 29.85 1011 10 16.0934 0 0
4:15 pm 16:15 Sunny 76 24.7 45 7.3 33 33 NNE 8 13 29.83 1010 10 16.0934 0 0
4:35 pm 16:35 Sunny 76 24.2 44 6.7 33 33 NE 8 13 29.82 1010 10 16.0934 0 0
4:55 pm 16:55 Sunny 76 24.3 45 7.1 33 33 E 8 13 29.83 1010 10 16.0934 0 0
5:15 pm 17:15 Sunny 76 24.2 46 7.8 35 35 ENE 10 17 29.84 1011 10 16.0934 0 0
5:35 pm 17:35 Sunny 74 23.4 46 8 37 37 NE 13 20 29.86 1011 10 16.0934 0 0
5:55 pm 17:55 Sunny 71 21.6 46 7.5 40 40 NE 22 35 29.87 1012 10 16.0934 0 0
6:15 pm 18:15 Sunny 69 20.3 44 6.6 41 41 NE 17 28 29.89 1012 10 16.0934 0 0
6:35 pm 18:35 Sunny 67 19.5 44 6.4 43 43 NE 13 20 29.91 1013 10 16.0934 0 0
6:55 pm 18:55 Sunny 66 18.9 44 6.7 45 45 NE 15 24 29.93 1013 10 16.0934 0 0
7:15 pm 19:15 Sunny 65 18.2 44 6.7 47 47 NE 16 26 29.94 1014 10 16.0934 0 0
7:35 pm 19:35 Clear 63 17.2 43 6.3 49 49 NE 12 19 29.96 1015 10 16.0934 0 0
7:55 pm 19:55 Clear 61 16.1 44 6.6 54 54 NE 9 15 29.97 1015 10 16.0934 0 0
8:15 pm 20:15 Clear 58 14.7 45 7.1 61 61 NE 7 11 29.99 1016 7 11.26538 0 0
8:35 pm 20:35 Clear 56 13.5 46 7.5 67 67 NE 6 9 30.01 1016 7 11.26538 0 0
8:55 pm 20:55 Clear 56 13.2 46 7.6 69 69 NNE 7 11 30.02 1017 7 11.26538 0 0
9:15 pm 21:15 Clear 55 12.8 46 7.5 70 70 NNE 7 11 30.04 1017 10 16.0934 0 0
9:35 pm 21:35 Partly Cloudy 53 11.9 46 7.8 76 76 NNE 6 9 30.06 1018 10 16.0934 0 0
9:55 pm 21:55 Partly Cloudy 53 11.4 46 7.7 78 78 NE 5 7 30.06 1018 10 16.0934 0 0
10:15 pm 22:15 Clear 53 11.4 46 7.8 79 79 NE 6 9 30.07 1018 10 16.0934 0 0
10:35 pm 22:35 Clear 51 10.7 46 7.5 81 81 NE 5 7 30.08 1019 10 16.0934 0 0
10:55 pm 22:55 Partly Cloudy 51 10.7 46 7.6 81 81 Calm 30.09 1019 10 16.0934 0 0
11:15 pm 23:15 Partly Cloudy 51 10.3 45 7.3 82 82 NE 7 11 30.08 1019 10 16.0934 0 0
11:35 pm 23:35 Clear 50 10.1 45 7.2 82 82 NNE 5 7 30.08 1019 10 16.0934 0 0
11:55 pm 23:55 Clear 50 10 45 7.2 83 83 NE 6 9 30.08 1019 10 16.0934 0 0

Powered by AerisWeather